Temperature
7 8 8 8 8 8 7 7 7 8 8 9 10 10 9 9 9 8 8 8 8 8 8 8 8 8 8 8 8 8 7 7 7 7 6 6 6 6 6 7 7 6 5 5
6 8 9 8 9 9 9 9 8 8 8 10 10 9 9 8 8 8 8 7 7 7 7 7 7 7 7 7 7 6 6 5 5 5 5 5 5 5 6 6 6 5 4 4
7 9 9 9 10 10 9 9 8 8 9 9 9 9 7 7 6 6 7 7 7 6 6 6 6 6 6 6 5 4 4 4 4 4 4 4 4 5 6 5 5 4 3 3
7 7 8 11 10 10 9 9 9 9 9 9 9 8 6 5 5 5 6 6 5 5 4 4 4 4 4 3 3 2 2 2 3 3 3 4 4 5 5 4 3 3 2 2
7 8 9 12 11 9 8 9 10 9 9 9 9 8 6 4 4 4 4 4 4 3 3 3 2 2 2 1 1 1 1 2 2 3 4 4 4 4 3 3 2 2 1 1
7 8 9 11 11 10 9 9 10 9 9 9 8 8 5 3 3 3 3 2 2 2 1 1 0 0 1 0 1 1 2 3 3 3 4 4 3 3 2 2 2 1 0 -0
7 7 9 12 11 10 9 10 10 9 9 8 6 5 3 2 2 1 1 1 1 0 0 -0 0 1 1 1 2 3 3 3 3 3 3 3 3 2 2 1 0 0 -0 -1
8 8 8 13 12 11 10 10 10 9 8 7 5 3 2 2 1 1 0 0 0 0 0 0 1 2 3 3 3 3 3 3 3 2 2 2 2 1 0 0 -0 -1 -1 -2
10 9 11 13 12 12 11 9 8 8 7 6 4 3 2 2 1 1 1 1 1 1 1 1 2 4 5 3 3 3 3 3 2 2 1 1 0 0 -0 -1 -1 -2 -2 -3
10 10 12 13 11 10 9 7 7 6 6 6 5 3 3 2 1 2 1 1 2 2 3 2 3 4 4 3 3 3 2 2 1 1 0 -0 -0 -1 -1 -1 -2 -3 -3 -3
9 10 11 10 9 8 7 6 5 5 6 5 5 3 3 2 1 1 1 2 3 4 4 3 3 3 3 2 2 2 1 1 0 -0 -0 -1 -1 -2 -2 -2 -3 -3 -4 -4
10 11 11 10 9 8 7 6 5 5 4 4 4 3 2 2 1 1 2 3 4 4 4 3 3 2 2 1 1 1 1 0 -0 -1 -1 -1 -2 -2 -3 -3 -4 -4 -5 -6
12 11 11 10 9 8 7 6 5 4 4 3 3 3 3 2 2 2 2 3 3 4 3 3 2 1 1 0 0 0 -0 -1 -1 -1 -1 -2 -2 -3 -3 -4 -5 -5 -6 -7
11 11 10 9 8 7 7 5 5 4 3 3 3 3 3 3 2 2 3 3 3 3 2 2 1 1 0 -0 -0 -1 -1 -1 -1 -2 -2 -3 -3 -4 -4 -5 -5 -6 -7 -8
10 10 9 9 8 7 6 5 4 3 3 3 3 3 3 3 3 3 3 3 2 2 2 1 1 0 -0 -1 -1 -1 -1 -2 -2 -3 -3 -4 -4 -4 -5 -6 -7 -7 -8 -8
9 9 8 7 7 6 6 5 5 4 4 4 3 3 3 4 3 3 2 2 2 2 1 1 0 -0 -1 -1 -1 -1 -2 -2 -3 -3 -4 -4 -5 -5 -6 -7 -7 -8 -9 -9
7 7 7 7 6 6 5 5 5 5 5 5 5 4 4 4 3 2 2 1 1 1 0 -0 -0 -1 -1 -1 -2 -2 -3 -3 -4 -4 -5 -5 -6 -6 -7 -8 -8 -9 -9 -10
6 7 7 7 7 6 5 4 5 5 6 6 5 5 4 4 3 2 1 1 0 -0 -1 -1 -1 -1 -2 -2 -2 -3 -3 -4 -4 -5 -5 -6 -7 -7 -8 -9 -9 -10 -10 -10
5 5 6 6 6 6 5 5 5 6 6 6 5 4 4 3 3 2 1 0 -0 -0 -1 -2 -2 -2 -2 -3 -3 -4 -4 -4 -5 -5 -6 -7 -7 -8 -9 -9 -10 -10 -10 -10
4 4 5 5 5 5 4 5 5 5 6 5 5 4 3 3 2 1 0 -0 -1 -1 -1 -2 -2 -3 -3 -3 -4 -4 -4 -5 -5 -6 -7 -8 -8 -9 -9 -10 -10 -11 -11 -11
3 4 4 5 4 4 4 4 5 5 5 5 5 5 4 2 1 1 0 -0 -1 -2 -2 -2 -3 -3 -3 -4 -4 -4 -5 -5 -6 -7 -8 -8 -9 -9 -10 -10 -11 -11 -11 -11
2 3 3 4 3 3 3 3 4 5 5 4 4 4 3 2 1 -0 -0 -0 -1 -2 -2 -3 -3 -3 -4 -4 -4 -5 -6 -6 -7 -8 -8 -9 -10 -10 -10 -11 -11 -11 -11 -11
1 2 2 2 2 2 2 2 3 4 4 5 4 4 3 2 1 1 -0 -1 -2 -2 -2 -3 -3 -4 -4 -5 -5 -6 -6 -7 -8 -8 -9 -9 -10 -10 -11 -11 -11 -11 -11 -11
1 1 1 1 1 1 1 1 1 2 3 4 3 3 3 2 1 -0 -0 -1 -2 -2 -3 -3 -4 -4 -4 -5 -6 -6 -7 -7 -8 -9 -9 -10 -10 -11 -11 -11 -11 -11 -11 -11
-0 -0 -0 -1 -1 -1 -0 -0 0 1 2 2 2 2 1 1 1 0 -1 -2 -2 -3 -3 -4 -4 -4 -5 -5 -6 -7 -7 -8 -9 -9 -10 -10 -10 -11 -11 -11 -11 -11 -11 -11
-1 -1 -1 -2 -2 -1 -1 -1 -0 1 1 2 2 1 1 0 -0 -1 -1 -2 -3 -3 -4 -4 -4 -5 -5 -6 -7 -7 -8 -8 -9 -9 -10 -10 -10 -11 -11 -11 -11 -11 -10 -10
-1 -2 -2 -3 -3 -2 -2 -1 -0 1 2 2 2 1 0 -1 -1 -1 -2 -3 -3 -4 -4 -4 -5 -5 -6 -7 -7 -8 -8 -9 -9 -9 -10 -10 -10 -10 -10 -10 -10 -10 -10 -10
Wind_Speed
9 12 11 13 16 15 17 17 17 22 28 31 26 22 17 13 11 11 10 8 5 3 2 2 5 9 11 13 14 14 14 14 15 15 15 15 15 15 15 14 13 12 11 9
7 13 15 18 18 18 17 17 18 23 26 19 17 13 10 8 8 9 8 6 4 3 6 7 10 11 12 12 12 13 14 15 16 17 16 15 14 14 15 14 12 11 10 8
5 7 9 9 6 5 7 9 11 13 14 17 15 10 7 8 8 7 6 2 2 6 8 10 11 11 12 12 13 13 14 16 17 18 17 15 15 14 14 12 11 10 8 7
5 7 4 2 7 5 7 12 12 13 15 14 10 3 5 8 8 7 3 2 7 10 11 11 11 12 13 13 14 15 15 16 17 17 16 15 13 13 12 10 9 8 7 6
3 5 8 4 4 4 4 6 5 8 12 11 6 1 6 11 10 8 7 9 10 11 13 13 13 14 16 15 15 15 16 16 15 15 15 14 13 12 10 9 8 7 6 5
3 4 4 2 3 4 3 5 1 5 9 9 7 4 5 9 10 11 12 11 12 13 14 14 14 15 17 16 16 16 15 15 13 13 13 13 12 10 8 7 7 6 4 3
6 5 6 5 1 2 3 5 6 6 6 5 4 3 4 7 10 11 12 12 12 13 13 13 14 15 16 15 15 14 15 14 13 12 12 12 10 8 8 6 5 4 3 1
5 6 7 2 2 3 5 5 5 5 4 4 6 6 7 8 9 10 11 12 12 12 13 12 13 15 17 15 14 14 14 14 13 11 10 10 9 8 6 5 4 2 1 1
6 7 6 4 4 4 4 5 5 3 3 7 7 6 7 8 8 9 10 10 10 12 14 13 11 13 18 15 13 14 14 14 12 11 9 8 8 6 5 4 3 2 2 2
5 8 8 4 4 5 5 4 5 3 4 7 8 8 8 8 8 9 9 10 11 13 15 13 11 11 13 14 13 15 14 12 10 9 8 7 6 5 4 4 3 3 3 3
6 9 6 4 5 4 4 4 5 6 7 8 10 9 9 8 8 8 10 10 11 12 15 14 12 12 11 11 13 14 12 10 8 7 7 6 5 4 4 4 4 2 2 3
5 1 2 2 3 4 4 5 5 7 8 8 9 10 10 9 8 9 10 11 12 13 14 14 13 12 10 9 10 12 10 8 6 5 5 4 3 2 1 1 1 2 3 4
5 1 1 2 4 5 6 6 7 8 8 9 9 9 10 10 9 10 11 12 13 13 14 13 13 11 9 8 9 10 9 7 5 5 4 4 4 4 3 3 3 5 5 7
1 1 2 3 5 7 8 9 9 9 9 9 10 10 10 11 11 11 11 11 12 13 13 12 12 10 9 9 10 10 8 8 6 5 4 4 3 3 3 3 3 4 5 9
3 3 2 6 8 8 8 9 10 10 10 10 9 10 11 12 12 11 10 10 12 13 12 12 12 10 8 9 9 9 7 5 5 4 4 3 3 3 2 3 3 4 4 6
3 3 4 6 8 8 9 9 10 11 11 11 11 11 11 12 12 11 9 9 11 12 10 11 10 8 8 8 9 7 6 8 6 4 3 3 3 3 3 3 4 4 4 4
2 3 5 6 8 9 9 9 10 11 12 12 13 14 14 13 12 11 10 9 10 10 9 10 9 8 8 8 7 5 5 5 5 4 3 3 3 3 3 3 4 4 4 7
7 6 7 7 9 10 10 10 11 12 12 13 15 14 13 13 13 12 11 11 12 11 9 8 8 8 8 8 6 5 4 4 3 2 2 2 3 3 3 4 4 5 5 7
8 5 4 6 8 9 10 11 11 12 13 14 14 13 12 12 12 12 11 11 11 10 6 7 12 9 7 7 6 5 4 3 2 2 2 4 4 3 4 4 4 5 6 7
4 2 1 4 7 8 10 11 12 13 12 13 14 14 13 12 11 11 10 8 6 6 8 8 8 7 7 6 6 4 3 2 2 2 2 3 3 4 4 4 5 5 5 6
6 4 3 5 6 8 9 11 13 13 13 13 14 15 14 12 10 10 10 8 6 8 9 11 7 6 5 4 4 3 3 2 2 3 3 3 4 4 4 4 5 6 6 7
5 3 4 5 7 8 8 9 10 12 13 13 13 14 14 13 11 9 7 6 8 12 7 6 5 6 6 5 3 3 2 2 2 3 3 3 4 4 4 5 5 6 6 6
4 3 3 5 7 8 8 8 9 10 11 13 14 15 13 11 9 9 8 6 7 11 8 6 8 8 6 3 2 2 2 2 3 3 3 4 4 4 4 5 5 6 6 6
4 3 3 5 6 7 8 7 8 9 10 10 10 11 12 11 7 5 7 14 14 12 7 9 10 7 4 2 2 1 2 2 3 3 4 4 4 4 5 5 6 6 6 8
4 3 3 5 5 5 7 9 11 12 12 10 10 9 7 6 7 9 8 9 14 12 7 8 8 5 3 1 1 1 2 3 4 4 4 4 4 5 5 6 6 6 7 7
1 1 1 2 4 5 6 7 8 8 10 11 9 7 7 8 10 9 8 9 10 11 7 5 4 3 1 1 2 3 3 4 5 4 4 5 6 6 6 6 8 7 7 7
0 2 3 4 4 5 5 6 8 9 9 11 11 8 9 9 9 9 10 8 7 6 5 4 3 1 0 1 3 3 3 4 4 4 5 5 5 6 6 7 7 7 7 7
Wind_Direction
267 281 279 264 261 254 246 249 260 273 279 287 295 298 295 283 277 278 277 281 277 246 181 135 100 97 102 110 114 121 129 133 130 124 122 122 122 122 120 115 111 107 105 103
269 261 261 262 261 259 258 256 259 272 281 287 296 298 297 300 298 290 286 283 264 184 150 130 113 109 107 110 116 124 129 128 123 120 119 118 120 119 113 110 108 108 110 112
275 298 295 268 238 240 262 268 268 277 287 303 308 316 326 327 320 314 307 292 176 136 124 115 114 115 113 114 117 121 123 121 120 120 120 120 120 116 112 111 110 111 116 125
291 308 278 185 150 198 262 274 271 280 295 308 313 337 10 354 334 325 334 64 110 111 107 105 106 107 106 108 113 116 117 117 118 121 121 119 118 113 112 115 117 118 117 109
272 285 277 278 161 198 254 278 263 291 308 321 337 15 24 14 14 26 53 83 94 101 105 107 108 110 110 110 111 113 114 115 119 122 121 119 116 113 114 114 110 112 113 112
254 285 278 354 136 153 209 267 293 317 319 332 348 358 3 15 38 56 69 79 90 96 102 105 108 112 113 114 115 116 118 118 119 119 119 116 114 110 107 106 107 109 109 112
236 254 272 298 145 186 279 300 332 331 330 348 39 56 52 50 61 73 82 87 93 100 104 110 114 115 114 115 116 120 120 118 115 112 111 109 104 100 100 103 109 114 130 185
205 226 252 266 320 283 286 310 325 339 1 80 101 93 82 77 77 83 93 99 103 107 111 117 121 121 116 114 116 116 113 109 106 102 103 101 98 94 92 95 100 105 79 0
207 229 266 310 281 300 354 329 341 358 71 121 117 110 101 92 89 89 90 95 99 102 101 101 105 115 115 114 115 113 108 104 100 95 92 94 96 97 93 81 69 51 32 17
280 275 282 317 47 38 35 5 358 13 105 124 122 122 114 106 101 100 97 97 99 101 100 96 95 100 109 114 114 110 105 101 98 95 90 83 81 76 74 70 55 39 25 14
258 272 282 97 62 45 55 50 49 55 81 110 122 123 118 111 107 105 102 99 103 107 106 104 104 102 102 106 108 103 99 96 93 91 93 86 80 74 68 77 89 59 22 7
244 320 11 52 68 66 85 82 87 94 92 97 111 118 115 110 105 103 103 104 105 105 105 105 103 98 94 94 101 104 101 93 90 89 87 89 88 77 132 135 60 336 309 309
261 21 86 116 98 90 101 100 98 102 107 107 105 111 113 112 109 108 108 109 111 109 108 105 100 93 86 88 91 94 97 96 92 89 85 74 55 39 14 338 290 292 299 308
298 189 253 190 139 113 107 104 101 100 100 104 110 111 112 111 108 108 109 112 112 109 106 102 96 87 82 86 89 88 86 86 89 83 74 62 47 29 11 355 342 332 331 328
255 204 138 109 111 115 120 123 120 117 115 113 114 116 116 115 111 108 107 109 107 104 101 99 94 85 82 87 89 87 84 78 75 74 63 48 28 3 348 343 332 322 324 334
52 67 119 142 150 150 152 149 142 138 133 128 122 116 112 112 110 108 104 107 111 107 104 99 94 90 88 89 89 83 77 73 65 54 48 33 14 356 349 344 335 333 333 327
180 218 207 197 182 174 173 164 152 147 140 133 127 123 121 118 112 105 97 94 98 99 99 102 99 92 85 84 88 94 93 76 54 43 39 27 1 349 347 342 335 331 324 323
262 248 210 198 187 179 172 156 150 147 141 135 132 131 131 128 124 118 113 107 100 92 87 96 98 90 81 76 79 82 86 83 64 44 17 9 353 339 332 333 331 326 320 323
286 270 228 199 179 170 161 152 148 141 137 139 139 136 129 124 124 124 121 118 116 113 110 114 113 97 87 78 81 76 79 72 43 28 16 347 346 341 341 330 321 319 321 323
335 344 191 153 149 150 148 144 140 139 143 143 136 130 128 128 130 128 120 111 116 129 130 121 108 102 95 81 80 79 70 53 28 9 1 345 333 327 323 320 319 315 314 314
4 24 82 113 117 122 133 139 144 146 146 144 142 139 137 134 132 128 122 115 111 123 126 125 111 108 104 103 84 78 59 35 13 357 343 331 322 318 315 314 317 317 316 315
1 33 80 105 113 115 122 132 141 144 143 139 135 135 136 136 130 118 108 127 136 136 122 112 111 120 121 104 83 75 46 12 351 337 326 319 315 313 312 314 312 308 304 301
6 49 93 115 123 125 122 129 138 142 141 142 145 146 144 140 138 134 129 133 135 135 123 120 130 129 118 96 85 59 11 343 328 320 311 305 302 302 302 301 297 296 297 297
18 47 81 106 120 130 132 126 120 120 120 123 130 136 137 132 117 105 127 142 143 129 120 134 134 128 112 91 70 18 337 322 312 305 303 301 299 297 293 292 292 293 293 295
38 58 90 120 130 129 123 119 117 120 120 121 117 113 112 117 126 129 128 135 137 125 118 133 134 124 100 75 23 331 310 295 288 293 293 299 297 294 289 288 287 290 293 293
20 110 137 133 124 126 135 138 139 139 137 133 125 115 112 113 118 121 119 118 123 125 119 109 114 118 93 10 318 303 296 301 312 310 296 292 288 288 289 290 291 289 289 289
157 122 110 102 119 139 148 150 151 153 151 146 136 131 127 124 122 121 118 115 115 116 117 118 119 114 334 303 297 294 292 292 291 288 287 286 285 285 287 288 288 288 289 290
Height
1450 1447 1446 1447 1445 1444 1446 1445 1440 1424 1416 1403 1398 1394 1391 1388 1385 1384 1382 1382 1381 1381 1382 1383 1384 1385 1386 1388 1393 1398 1404 1409 1413 1418 1424 1430 1435 1441 1447 1453 1459 1463 1466 1469
1450 1442 1439 1437 1433 1432 1430 1429 1425 1419 1409 1400 1394 1390 1386 1383 1381 1379 1377 1377 1377 1378 1379 1380 1382 1384 1386 1390 1395 1400 1405 1409 1412 1418 1424 1430 1435 1442 1447 1453 1458 1461 1464 1466
1445 1434 1433 1429 1420 1422 1423 1420 1418 1413 1405 1396 1391 1387 1385 1382 1379 1377 1375 1374 1374 1375 1377 1379 1381 1384 1388 1392 1397 1402 1405 1409 1413 1418 1424 1430 1437 1443 1448 1453 1457 1460 1462 1463
1446 1440 1433 1420 1415 1417 1418 1414 1411 1407 1400 1394 1389 1387 1385 1382 1378 1375 1374 1373 1373 1375 1377 1379 1382 1386 1390 1394 1398 1402 1406 1410 1414 1420 1426 1433 1440 1445 1449 1452 1455 1458 1460 1461
1445 1437 1427 1413 1413 1414 1416 1411 1405 1403 1397 1391 1387 1386 1385 1383 1379 1377 1375 1375 1375 1376 1378 1381 1384 1388 1391 1396 1400 1404 1408 1412 1418 1425 1431 1437 1441 1445 1449 1452 1455 1457 1458 1458
1442 1438 1429 1413 1410 1410 1414 1409 1402 1399 1396 1392 1388 1388 1390 1387 1383 1380 1378 1378 1379 1380 1382 1384 1388 1391 1394 1399 1404 1408 1413 1418 1424 1429 1435 1439 1443 1446 1449 1452 1454 1455 1456 1456
1439 1436 1424 1409 1408 1409 1413 1407 1399 1397 1395 1393 1392 1394 1394 1390 1387 1384 1383 1383 1383 1384 1386 1389 1393 1396 1400 1404 1408 1413 1418 1423 1428 1434 1438 1441 1444 1447 1449 1451 1452 1453 1453 1453
1431 1432 1425 1406 1406 1407 1405 1399 1397 1396 1394 1393 1393 1394 1394 1393 1391 1390 1389 1388 1389 1390 1393 1396 1399 1402 1405 1409 1414 1419 1424 1429 1433 1437 1440 1443 1445 1447 1449 1450 1451 1451 1451 1450
1419 1418 1406 1403 1403 1402 1399 1398 1396 1395 1394 1393 1394 1395 1395 1395 1395 1395 1396 1396 1398 1398 1400 1404 1407 1410 1412 1417 1421 1425 1429 1433 1436 1439 1442 1444 1446 1447 1448 1449 1449 1449 1448 1448
1413 1406 1402 1401 1400 1399 1397 1396 1394 1393 1393 1393 1394 1395 1396 1397 1398 1399 1400 1401 1403 1404 1406 1410 1414 1417 1419 1422 1426 1430 1432 1435 1438 1441 1443 1445 1446 1447 1448 1448 1448 1447 1446 1445
1410 1404 1400 1400 1399 1398 1396 1395 1393 1393 1393 1394 1394 1396 1398 1399 1400 1402 1403 1405 1407 1409 1411 1415 1419 1422 1425 1428 1431 1433 1435 1438 1440 1443 1444 1446 1447 1447 1447 1446 1446 1445 1443 1442
1406 1402 1401 1400 1398 1397 1395 1394 1394 1393 1394 1395 1396 1397 1399 1400 1402 1404 1405 1408 1411 1413 1416 1419 1423 1426 1429 1432 1435 1436 1438 1440 1442 1444 1445 1446 1446 1446 1445 1445 1444 1442 1440 1438
1400 1399 1399 1398 1397 1396 1395 1394 1394 1394 1395 1396 1398 1399 1401 1402 1404 1406 1409 1411 1414 1417 1420 1423 1426 1429 1432 1435 1437 1439 1440 1442 1443 1444 1445 1445 1445 1445 1444 1443 1442 1439 1437 1435
1397 1397 1397 1396 1396 1395 1394 1394 1395 1396 1397 1398 1400 1402 1403 1405 1407 1410 1412 1415 1419 1421 1424 1427 1430 1432 1435 1438 1439 1441 1442 1443 1444 1445 1445 1444 1444 1443 1442 1440 1438 1436 1434 1432
1395 1395 1395 1394 1394 1394 1394 1394 1395 1397 1398 1400 1402 1404 1406 1408 1410 1413 1416 1420 1422 1425 1428 1431 1433 1435 1438 1440 1441 1442 1443 1444 1444 1444 1444 1443 1442 1441 1439 1437 1435 1433 1431 1429
1392 1392 1392 1392 1392 1392 1393 1394 1395 1397 1399 1401 1404 1406 1409 1411 1414 1417 1421 1424 1426 1428 1431 1434 1436 1438 1440 1441 1443 1443 1444 1444 1444 1444 1443 1442 1440 1439 1437 1435 1432 1430 1427 1425
1391 1390 1389 1389 1390 1390 1392 1393 1395 1397 1399 1402 1405 1408 1411 1414 1417 1420 1424 1427 1430 1432 1434 1436 1438 1440 1441 1442 1443 1444 1444 1444 1443 1442 1441 1440 1438 1436 1434 1432 1429 1427 1425 1422
1387 1387 1387 1387 1387 1388 1390 1392 1394 1397 1400 1403 1406 1410 1413 1416 1418 1422 1425 1428 1431 1433 1436 1438 1440 1441 1442 1443 1443 1443 1443 1443 1442 1441 1439 1437 1435 1433 1431 1429 1426 1424 1421 1419
1382 1382 1383 1383 1384 1385 1387 1390 1393 1396 1400 1404 1407 1410 1414 1417 1420 1423 1427 1429 1432 1434 1437 1439 1440 1442 1442 1443 1443 1443 1442 1441 1440 1438 1437 1435 1433 1430 1428 1426 1424 1421 1418 1416
1379 1379 1380 1380 1382 1384 1386 1389 1392 1396 1400 1404 1407 1410 1414 1418 1421 1424 1427 1430 1433 1436 1437 1439 1440 1441 1442 1442 1442 1441 1441 1439 1438 1436 1434 1432 1430 1428 1425 1423 1421 1418 1416 1413
1379 1378 1379 1380 1381 1383 1385 1388 1391 1395 1399 1403 1407 1410 1414 1418 1421 1424 1427 1430 1433 1436 1437 1439 1440 1441 1441 1441 1441 1440 1439 1437 1435 1433 1431 1429 1427 1425 1423 1420 1418 1415 1413 1410
1379 1379 1379 1380 1381 1383 1385 1388 1391 1395 1398 1402 1406 1410 1414 1417 1421 1425 1428 1431 1433 1435 1437 1438 1440 1440 1440 1440 1439 1438 1437 1435 1433 1431 1429 1426 1424 1422 1420 1417 1415 1413 1410 1408
1380 1380 1380 1380 1381 1383 1385 1388 1391 1394 1397 1401 1405 1409 1413 1416 1420 1423 1426 1430 1432 1435 1436 1438 1439 1439 1439 1438 1437 1436 1434 1432 1430 1428 1426 1423 1421 1419 1417 1414 1412 1410 1407 1405
1381 1380 1380 1381 1382 1383 1384 1387 1390 1393 1397 1402 1406 1410 1413 1417 1420 1425 1428 1430 1432 1434 1435 1437 1437 1437 1437 1437 1435 1434 1432 1430 1428 1425 1423 1420 1418 1416 1413 1411 1409 1407 1404 1402
1381 1381 1381 1381 1382 1383 1384 1386 1389 1393 1397 1401 1406 1410 1414 1418 1421 1423 1426 1429 1431 1433 1434 1435 1436 1436 1435 1434 1433 1431 1429 1427 1425 1422 1420 1418 1415 1413 1411 1408 1406 1404 1401 1399
1381 1381 1381 1381 1382 1383 1384 1386 1389 1392 1395 1400 1405 1409 1414 1418 1421 1424 1426 1428 1430 1432 1434 1434 1435 1434 1433 1432 1431 1429 1427 1425 1422 1420 1418 1415 1413 1410 1408 1406 1403 1401 1399 1396
1380 1380 1380 1380 1381 1382 1384 1386 1389 1392 1396 1400 1404 1408 1413 1416 1420 1423 1425 1428 1430 1431 1432 1433 1433 1432 1431 1430 1428 1426 1424 1422 1420 1418 1415 1413 1410 1408 1405 1403 1401 1399 1397 1394